Terug naar catalogus

CZ-6A DEB

ActiefPO
NORAD 61459·DEBRIS·🇨🇳 China

Gelanceerd Aug 6, 2024 vanaf Taiyuan Satellite Launch Center

Loading…

Volgende Passages (komende 24 uur)

TLE

VersSource: Space-Track

Epoch: Sep 14, 2026, 14:25 UTC

1 61459U 24140ZR  26257.60110665  .00001512  00000-0  43190-3 0  9992
2 61459  88.4612 210.6576 0043908 344.4378  15.5472 14.44091664108620

Volg CZ-6A DEB in realtime met AllMySat

Download on the App Store